Radiation Dose at Monitoring Post of Fukushima Daini Nuclear Power Station
Date,Time,MP-1(microSv/h),MP-2(microSv/h),MP-3(microSv/h),MP-4(microSv/h),MP-5(microSv/h),MP-6(microSv/h),MP-7(microSv/h),Wind Direction,Wind Velocity(m/s),Rain
2012/12/23,00:00,1.1,0.7,1.1,1.0,1.0,0.5,0.4,north,7.3,No
2012/12/23,00:10,1.1,0.7,1.1,1.0,1.0,0.5,0.4,north,5.3,Yes
2012/12/23,00:20,1.1,0.7,1.1,1.0,1.0,0.5,0.4,north-northwest,3.1,Yes
2012/12/23,00:30,1.1,0.7,1.1,1.0,1.0,0.5,0.4,northwest,2.9,No
2012/12/23,00:40,1.1,0.7,1.1,1.0,1.0,0.5,0.4,west,3.4,Yes
2012/12/23,00:50,1.1,0.7,1.1,1.0,1.0,0.5,0.4,west-northwest,4.4,No
2012/12/23,01:00,1.1,0.7,1.1,1.0,1.0,0.5,0.4,northwest,5.0,No
2012/12/23,01:10,1.1,0.7,1.1,1.0,1.0,0.5,0.4,northwest,5.0,Yes
2012/12/23,01:20,1.1,0.7,1.1,1.0,1.0,0.5,0.4,west,4.2,Yes
2012/12/23,01:30,1.1,0.7,1.1,1.0,1.0,0.5,0.4,west,3.3,Yes
2012/12/23,01:40,1.1,0.7,1.1,1.0,1.0,0.5,0.4,west,2.9,No
2012/12/23,01:50,1.1,0.7,1.1,1.0,1.0,0.5,0.4,west-northwest,3.6,No
2012/12/23,02:00,1.1,0.7,1.1,1.0,1.0,0.5,0.4,northwest,3.4,No
2012/12/23,02:10,1.1,0.7,1.1,1.0,1.0,0.5,0.4,northwest,4.2,Yes
2012/12/23,02:20,1.1,0.7,1.1,1.0,1.0,0.5,0.4,northwest,4.3,Yes
2012/12/23,02:30,1.1,0.7,1.1,1.0,1.0,0.5,0.4,northwest,4.2,No
2012/12/23,02:40,1.1,0.7,1.1,1.0,1.0,0.5,0.4,northwest,2.9,No
2012/12/23,02:50,1.1,0.7,1.1,1.0,1.0,0.5,0.4,north-northwest,2.8,No
2012/12/23,03:00,1.1,0.7,1.1,1.0,1.0,0.5,0.4,north-northeast,3.0,No
2012/12/23,03:10,1.1,0.7,1.1,1.0,1.0,0.5,0.4,north,3.8,No
2012/12/23,03:20,1.1,0.7,1.1,1.0,1.0,0.5,0.4,north-northeast,5.1,No
2012/12/23,03:30,1.1,0.7,1.1,1.0,1.0,0.5,0.4,north,5.3,No
2012/12/23,03:40,1.1,0.7,1.1,1.0,1.0,0.5,0.4,north,4.7,No
2012/12/23,03:50,1.1,0.7,1.1,1.0,1.0,0.5,0.4,north,5.8,No
2012/12/23,04:00,1.1,0.7,1.1,1.0,1.0,0.5,0.4,north,4.6,No
2012/12/23,04:10,1.1,0.7,1.1,1.0,1.0,0.5,0.4,north,4.8,No
2012/12/23,04:20,1.1,0.7,1.1,1.0,1.0,0.5,0.4,north,5.7,No
2012/12/23,04:30,1.1,0.7,1.1,1.0,1.0,0.5,0.4,north-northwest,5.3,No
2012/12/23,04:40,1.1,0.7,1.1,1.0,1.0,0.5,0.4,north-northwest,3.7,No
2012/12/23,04:50,1.1,0.7,1.1,1.0,1.0,0.5,0.4,north,3.9,No
2012/12/23,05:00,1.1,0.7,1.1,1.0,1.0,0.5,0.4,north,3.9,No
2012/12/23,05:10,1.1,0.7,1.1,1.0,1.0,0.5,0.4,north,3.3,No
2012/12/23,05:20,1.1,0.7,1.1,1.0,1.0,0.5,0.4,north-northeast,3.8,No
2012/12/23,05:30,1.1,0.7,1.1,1.0,1.0,0.5,0.4,north-northeast,3.3,No
2012/12/23,05:40,1.1,0.7,1.1,1.0,1.0,0.5,0.4,north,3.5,No
2012/12/23,05:50,1.1,0.7,1.1,1.0,1.0,0.5,0.4,north,4.4,No
2012/12/23,06:00,1.1,0.7,1.1,1.0,1.0,0.5,0.4,north,3.6,No
2012/12/23,06:10,1.1,0.7,1.1,1.0,1.0,0.5,0.4,north,2.8,No
2012/12/23,06:20,1.1,0.7,1.1,1.0,1.0,0.5,0.4,north-northwest,2.1,No
2012/12/23,06:30,1.1,0.7,1.1,1.0,1.0,0.5,0.4,north-northwest,1.4,No
2012/12/23,06:40,1.1,0.7,1.1,1.0,1.0,0.5,0.4,northwest,1.6,No
2012/12/23,06:50,1.1,0.7,1.1,1.0,1.0,0.5,0.4,west-northwest,1.6,No
2012/12/23,07:00,1.1,0.7,1.1,1.0,1.0,0.5,0.4,west-northwest,1.4,No
2012/12/23,07:10,1.1,0.7,1.1,1.0,1.0,0.5,0.4,west-northwest,1.1,No
2012/12/23,07:20,1.1,0.7,1.1,1.0,1.0,0.5,0.4,south-southwest,0.9,No
2012/12/23,07:30,1.1,0.7,1.1,1.0,1.0,0.5,0.4,northeast,0.9,No
2012/12/23,07:40,1.1,0.7,1.1,1.0,1.0,0.5,0.4,east-northeast,1.1,No
2012/12/23,07:50,1.1,0.7,1.1,1.0,1.0,0.5,0.4,south-southeast,0.6,No
2012/12/23,08:00,1.1,0.7,1.1,1.0,1.0,0.5,0.4,west-northwest,1.6,No
2012/12/23,08:10,1.1,0.7,1.1,1.0,1.0,0.5,0.4,northwest,0.8,No
2012/12/23,08:20,1.1,0.7,1.1,1.0,1.0,0.5,0.4,north-northeast,2.3,No
2012/12/23,08:30,1.1,0.7,1.1,1.0,1.0,0.5,0.4,north,4.5,No
2012/12/23,08:40,1.1,0.7,1.1,1.0,1.0,0.5,0.4,north,7.2,No
2012/12/23,08:50,1.1,0.7,1.1,1.0,1.0,0.5,0.4,north,8.5,No
2012/12/23,09:00,1.1,0.7,1.1,1.0,1.0,0.5,0.4,north,7.6,No
2012/12/23,09:10,1.1,0.7,1.1,1.0,1.0,0.5,0.4,north,6.7,No
2012/12/23,09:20,1.1,0.7,1.1,1.0,1.0,0.5,0.4,north,5.8,No
2012/12/23,09:30,1.1,0.7,1.1,1.0,1.0,0.5,0.4,north,8.0,No
2012/12/23,09:40,1.1,0.7,1.1,1.0,1.0,0.5,0.4,north,6.7,No
2012/12/23,09:50,1.1,0.7,1.1,1.0,1.0,0.5,0.4,north-northeast,4.2,No
2012/12/23,10:00,1.1,0.7,1.1,1.0,1.0,0.5,0.4,north-northeast,2.7,No
2012/12/23,10:10,1.1,0.7,1.1,1.0,1.0,0.5,0.4,north,1.9,No
2012/12/23,10:20,1.1,0.7,1.1,1.0,1.0,0.5,0.4,north,4.0,No
2012/12/23,10:30,1.1,0.7,1.1,1.0,1.0,0.5,0.4,north,1.0,No
2012/12/23,10:40,1.1,0.7,1.1,1.0,1.0,0.5,0.4,north-northeast,1.7,No
2012/12/23,10:50,1.1,0.7,1.1,1.0,1.0,0.5,0.4,east-northeast,2.0,No
2012/12/23,11:00,1.1,0.7,1.1,1.0,1.0,0.5,0.4,north-northeast,1.4,No
2012/12/23,11:10,1.1,0.7,1.1,1.0,1.0,0.5,0.4,north,2.5,No
2012/12/23,11:20,1.1,0.7,1.1,1.0,1.0,0.5,0.4,north,1.2,No
2012/12/23,11:30,1.1,0.7,1.1,1.0,1.0,0.5,0.4,north-northeast,1.4,No
2012/12/23,11:40,1.1,0.7,1.1,1.0,1.0,0.5,0.4,north,2.5,No
2012/12/23,11:50,1.1,0.7,1.1,1.0,1.0,0.5,0.4,northeast,4.4,No
2012/12/23,12:00,1.1,0.7,1.1,1.0,1.0,0.5,0.4,northeast,2.6,No
2012/12/23,12:10,1.1,0.7,1.1,1.0,1.0,0.5,0.4,north-northeast,2.5,No
2012/12/23,12:20,1.1,0.7,1.1,1.0,1.0,0.5,0.4,north-northeast,2.8,No
2012/12/23,12:30,1.1,0.7,1.1,1.0,1.0,0.5,0.4,east-northeast,2.6,No
2012/12/23,12:40,1.1,0.7,1.1,1.0,1.0,0.5,0.4,east,0.8,No
2012/12/23,12:50,1.1,0.7,1.1,1.0,1.0,0.5,0.4,east-northeast,1.0,No
2012/12/23,13:00,1.1,0.7,1.1,1.0,1.0,0.5,0.4,east-northeast,0.7,No
2012/12/23,13:10,1.1,0.7,1.1,1.0,1.0,0.5,0.4,east-southeast,1.4,No
2012/12/23,13:20,1.1,0.7,1.1,1.0,1.0,0.5,0.4,southeast,1.8,No
2012/12/23,13:30,1.1,0.7,1.1,1.0,1.0,0.5,0.4,southeast,2.2,No
2012/12/23,13:40,1.1,0.7,1.1,1.0,1.0,0.5,0.4,east-southeast,3.6,No
2012/12/23,13:50,1.1,0.7,1.1,1.0,1.0,0.5,0.4,southeast,2.5,No
2012/12/23,14:00,1.1,0.7,1.1,1.0,1.0,0.5,0.4,south-southeast,2.3,No
2012/12/23,14:10,1.1,0.7,1.1,1.0,1.0,0.5,0.4,south-southeast,2.6,No
2012/12/23,14:20,1.1,0.7,1.1,1.0,1.0,0.5,0.4,southeast,4.4,No
2012/12/23,14:30,1.1,0.7,1.1,1.0,1.0,0.5,0.4,southeast,4.2,No
2012/12/23,14:40,1.1,0.7,1.1,1.0,1.0,0.5,0.4,south-southeast,4.4,No
2012/12/23,14:50,1.1,0.7,1.1,1.0,1.0,0.5,0.4,south-southeast,3.2,No
2012/12/23,15:00,1.1,0.7,1.1,1.0,1.0,0.5,0.4,south-southeast,3.5,No
2012/12/23,15:10,1.1,0.7,1.1,1.0,1.0,0.5,0.4,south,5.0,No
2012/12/23,15:20,1.1,0.7,1.1,1.0,1.0,0.5,0.4,south-southeast,3.3,No
2012/12/23,15:30,1.1,0.7,1.1,1.0,1.0,0.5,0.4,south-southwest,1.0,No
2012/12/23,15:40,1.1,0.7,1.1,1.0,1.0,0.5,0.4,south-southwest,2.0,No
2012/12/23,15:50,1.1,0.7,1.1,1.0,1.0,0.5,0.4,south-southwest,1.5,No
2012/12/23,16:00,1.1,0.7,1.1,1.0,1.0,0.5,0.4,south-southeast,2.7,No
2012/12/23,16:10,1.1,0.7,1.1,1.0,1.0,0.5,0.4,south,3.4,No
2012/12/23,16:20,1.1,0.7,1.1,1.0,1.0,0.5,0.4,southeast,1.4,No
2012/12/23,16:30,1.1,0.7,1.1,1.0,1.0,0.5,0.4,east,2.5,No
2012/12/23,16:40,1.1,0.7,1.1,1.0,1.0,0.5,0.4,south,1.1,No
2012/12/23,16:50,1.1,0.7,1.1,1.0,1.0,0.5,0.4,south,2.2,No
2012/12/23,17:00,1.1,0.7,1.1,1.0,1.0,0.5,0.4,south,1.0,No
2012/12/23,17:10,1.1,0.7,1.1,1.0,1.0,0.5,0.4,-,CALM,No
2012/12/23,17:20,1.1,0.7,1.1,1.0,1.0,0.5,0.4,south-southwest,1.7,No
2012/12/23,17:30,1.1,0.7,1.1,1.0,1.0,0.5,0.4,south-southwest,4.2,No
2012/12/23,17:40,1.1,0.7,1.1,1.0,1.0,0.5,0.4,south-southwest,4.8,No
2012/12/23,17:50,1.1,0.7,1.1,1.0,1.0,0.5,0.4,south-southwest,5.4,No
2012/12/23,18:00,1.1,0.7,1.1,1.0,1.0,0.5,0.4,south-southwest,5.5,No
2012/12/23,18:10,1.1,0.7,1.1,1.0,1.0,0.5,0.4,south-southwest,5.4,No
2012/12/23,18:20,1.1,0.7,1.1,1.0,1.0,0.5,0.4,south,4.0,No
2012/12/23,18:30,1.1,0.7,1.1,1.0,1.0,0.5,0.4,south-southwest,2.8,No
2012/12/23,18:40,1.1,0.7,1.1,1.0,1.0,0.5,0.4,south-southwest,4.0,No
2012/12/23,18:50,1.1,0.7,1.1,1.0,1.0,0.5,0.4,southwest,4.1,No
2012/12/23,19:00,1.1,0.7,1.1,1.0,1.0,0.5,0.4,southwest,4.6,Yes
2012/12/23,19:10,1.1,0.7,1.1,1.0,1.0,0.5,0.4,west-southwest,4.7,Yes
2012/12/23,19:20,1.1,0.7,1.1,1.0,1.0,0.5,0.4,west-southwest,4.2,Yes
2012/12/23,19:30,1.1,0.7,1.1,1.0,1.0,0.5,0.4,west-southwest,5.3,Yes
2012/12/23,19:40,1.1,0.7,1.1,1.0,1.0,0.5,0.4,west-southwest,5.6,Yes
2012/12/23,19:50,1.1,0.7,1.1,1.0,1.0,0.5,0.4,west-southwest,5.0,Yes
2012/12/23,20:00,1.1,0.7,1.1,1.0,1.0,0.5,0.4,west-southwest,4.6,Yes
2012/12/23,20:10,1.1,0.7,1.1,1.0,1.0,0.5,0.4,west,5.8,Yes
2012/12/23,20:20,1.1,0.7,1.1,1.0,1.0,0.5,0.4,west,8.0,Yes
2012/12/23,20:30,1.1,0.7,1.1,1.0,1.0,0.5,0.4,west-northwest,6.8,Yes
2012/12/23,20:40,1.1,0.7,1.1,1.0,1.0,0.5,0.4,northwest,6.5,Yes
2012/12/23,20:50,1.1,0.7,1.1,1.0,1.0,0.5,0.4,northwest,5.6,Yes
2012/12/23,21:00,1.1,0.7,1.1,1.0,1.0,0.5,0.4,west-northwest,5.3,Yes
2012/12/23,21:10,1.1,0.7,1.1,1.0,1.0,0.5,0.4,west-northwest,6.8,Yes
2012/12/23,21:20,1.1,0.7,1.1,1.0,1.0,0.5,0.4,west-northwest,7.2,Yes
2012/12/23,21:30,1.1,0.7,1.1,1.0,1.0,0.5,0.4,west-northwest,8.7,Yes
2012/12/23,21:40,1.1,0.7,1.1,1.0,1.0,0.5,0.4,west-northwest,10.9,Yes
2012/12/23,21:50,1.1,0.7,1.1,1.0,1.0,0.5,0.4,west-northwest,8.6,Yes
2012/12/23,22:00,1.1,0.7,1.1,1.0,1.0,0.5,0.4,northwest,7.8,Yes
2012/12/23,22:10,1.1,0.7,1.1,1.0,1.0,0.5,0.4,west-northwest,6.9,No
2012/12/23,22:20,1.1,0.7,1.1,1.0,1.0,0.5,0.4,northwest,5.4,Yes
2012/12/23,22:30,1.1,0.7,1.1,1.0,1.0,0.5,0.4,north,7.3,Yes
2012/12/23,22:40,1.1,0.7,1.1,1.0,1.0,0.5,0.4,north,7.7,No
2012/12/23,22:50,1.1,0.7,1.1,1.0,1.0,0.5,0.4,north,8.2,No
2012/12/23,23:00,1.1,0.7,1.1,1.0,1.0,0.5,0.4,north-northwest,8.3,No
2012/12/23,23:10,1.1,0.7,1.1,1.0,1.0,0.5,0.4,north-northwest,8.8,No
2012/12/23,23:20,1.1,0.7,1.1,1.0,1.0,0.5,0.4,north-northwest,8.9,No
2012/12/23,23:30,1.1,0.7,1.1,1.0,1.0,0.5,0.4,north-northwest,9.8,No
2012/12/23,23:40,1.1,0.7,1.1,1.0,1.0,0.5,0.4,north-northwest,10.1,No
2012/12/23,23:50,1.1,0.7,1.1,1.0,1.0,0.5,0.4,north-northwest,11.5,No
